Location: Isle of Man Observatory
(54.1776°N, 4.6264°W)
Time: 06:45:13
(UTC+02:00)

ISS - Pass Details

Date: 21 May 2026
Orbit: 416 x 422 km, 51.6° (Epoch: 11 June)

Event Time Altitude Azimuth Distance (km) Brightness Sun altitude
Rises 00:00:47 0° 277° (W) 2,360 0.7 -10.3°
Reaches altitude 10° 00:03:17 10° 258° (WSW) 1,493 -0.7 -10.5°
Maximum altitude 00:05:41 18° 212° (SSW) 1,082 -1.9 -10.7°
Enters shadow 00:07:14 14° 178° (S) 1,268 -1.9 -10.8°
